Location: *
(41.7492°S, 135.4150°W)
Time: 00:21:38
(UTC+00:00)

Meteor 1-10 Rocket - Pass Details

Date: 20 September 2021
Orbit: 836 x 909 km, 81.3° (Epoch: 25 October)

Event Time Altitude Azimuth Distance (km) Brightness Sun altitude
Rises 12:13:50 0° 189° (S) 3,462 7.6 -29.5°
Reaches altitude 10° 12:16:19 10° 187° (S) 2,510 6.9 -29.1°
Maximum altitude 12:22:00 77° 101° (E) 877 4.2 -28.2°
Enters shadow 12:23:42 47° 25° (NNE) 1,118 4.7 -27.9°
